Location: Newark
(52.5667°N, 8.8000°W)
Time: 19:45:02
(UTC+00:00)

N. Korean satellite - Pass Details

Date: 28 January 2020
Orbit: 456 x 505 km, 97.2° (Epoch: 26 February)

Event Time Altitude Azimuth Distance (km) Brightness Sun altitude
Rises 05:58:12 0° 20° (NNE) 2,546 10.5 -22.0°
Reaches altitude 10° 06:00:24 10° 30° (NNE) 1,670 9.6 -21.6°
Maximum altitude 06:03:41 33° 97° (E) 835 8.4 -21.1°
Drops below altitude 10° 06:07:00 10° 163° (SSE) 1,682 9.5 -20.6°
Sets 06:09:13 0° 173° (S) 2,567 10.4 -20.3°
